Theta_e
292 291 291 290 290 289 288 287 285 285 285 285 285 285 285 285 286 286 287 287 287 288 288 289 290 292 292 292 293 293 294 295 296 296 299 301 301 301 305 307 309 310 312
291 291 291 290 290 289 288 286 285 286 285 285 285 285 285 286 286 286 286 287 287 288 288 289 289 290 290 291 291 292 292 292 292 296 298 300 302 302 304 302 304 305 308
291 291 290 290 290 289 288 286 286 286 286 285 285 285 285 286 286 286 287 287 287 288 288 289 288 289 290 291 291 291 291 291 292 295 296 298 301 300 302 303 300 302 304
291 291 290 290 289 289 288 285 286 286 286 286 285 285 285 286 287 288 288 288 288 288 289 288 289 289 290 290 290 290 290 291 291 292 296 297 296 296 296 299 299 297 297
291 290 290 289 288 289 289 287 286 286 286 285 285 285 286 287 288 289 289 289 291 290 289 288 289 289 289 289 290 290 290 291 293 295 296 294 292 291 293 295 294 295 292
291 291 290 288 286 289 289 288 287 286 286 285 284 285 286 286 288 288 287 287 289 289 289 289 290 290 289 289 290 290 290 291 292 294 297 296 296 295 294 294 290 291 290
291 290 290 288 285 286 286 288 287 286 286 285 284 285 285 286 288 287 286 286 287 287 287 288 288 289 290 290 290 290 291 291 292 294 294 295 297 298 296 292 291 289 285
290 289 290 286 285 286 286 285 285 284 284 284 283 282 285 285 287 287 286 286 286 286 287 288 288 289 289 290 290 290 290 291 292 293 294 295 296 299 297 295 292 285 283
290 289 290 286 284 285 286 285 284 283 283 283 282 281 283 285 285 286 286 285 285 285 285 286 287 288 289 290 290 290 289 290 291 293 294 296 296 296 297 293 286 286 283
291 290 290 285 284 285 287 286 284 283 283 283 281 281 280 281 283 285 285 284 283 282 283 284 286 286 287 289 288 287 284 283 284 285 286 287 288 287 287 290 288 287 282
292 290 289 286 284 285 286 286 285 283 283 282 282 281 280 280 281 282 284 283 282 281 281 282 284 285 285 284 286 285 282 282 282 281 281 282 283 285 285 286 286 286 285
291 289 289 287 284 284 285 285 285 284 283 283 283 282 281 280 280 280 281 282 282 281 281 281 281 282 283 283 282 282 282 283 282 281 280 279 280 281 282 284 285 286 286
289 289 289 288 284 284 285 286 286 284 284 283 283 283 282 282 281 279 279 279 280 281 280 280 280 280 280 279 279 282 282 281 280 278 276 276 277 278 281 282 283 284 283
288 288 288 287 284 284 284 285 285 285 284 284 284 283 282 282 282 281 280 279 278 279 281 282 282 282 282 282 282 281 280 280 278 276 275 275 276 278 279 279 278 279 278
288 288 288 287 283 283 284 285 285 285 284 284 284 284 283 283 283 282 282 281 280 278 278 279 280 281 281 280 279 279 279 279 277 275 275 275 275 277 276 276 277 276 274
286 286 286 286 284 283 284 284 285 285 285 284 284 284 284 284 283 282 282 281 279 278 278 276 275 275 275 277 278 278 278 278 277 277 276 276 275 275 275 275 277 274 271
286 286 285 285 283 282 283 283 283 284 284 284 284 283 283 283 283 283 282 282 280 279 277 276 275 275 274 274 275 276 276 277 277 278 277 277 276 275 275 275 276 275 272
286 286 285 284 283 282 282 283 283 283 282 283 283 283 283 283 283 282 282 282 281 279 277 276 276 275 275 274 274 274 274 274 274 274 274 274 274 274 275 274 275 273 272
285 285 285 284 284 284 282 282 283 283 284 284 283 283 282 282 282 282 282 281 281 281 280 278 277 276 276 275 274 273 273 273 274 274 274 274 273 273 273 273 273 273 273
285 285 285 284 283 283 282 282 282 282 282 283 283 283 282 281 281 282 282 282 280 280 280 279 279 278 278 277 276 275 275 274 273 273 273 272 273 273 273 273 273 273 272
285 284 284 284 283 283 282 282 282 282 281 282 282 282 283 283 284 283 283 282 281 280 279 278 278 277 276 275 275 276 276 275 275 274 274 273 273 272 272 272 272 272 272
284 284 284 283 283 282 282 282 282 281 281 282 282 282 282 283 283 283 283 282 282 281 280 279 278 277 277 276 275 275 275 275 275 274 274 274 273 273 272 271 271 271 271
283 283 283 283 283 282 282 282 281 281 281 282 282 282 282 283 284 283 282 282 282 282 281 280 278 277 277 276 276 275 275 274 274 274 274 274 273 273 273 272 271 271 270
282 283 283 283 282 282 281 281 281 281 281 281 281 282 282 282 282 282 282 282 282 281 280 278 277 276 276 275 275 274 274 274 273 273 273 273 272 272 272 271 271 271 271
282 283 282 282 281 280 280 280 280 280 280 281 281 281 280 280 280 280 280 280 279 277 276 275 275 274 274 273 273 272 272 272 272 272 272 271 271 271 271 271 271 270 270
276 276 276 277 277 277 278 278 277 277 277 276 276 277 277 276 275 275 274 274 273 272 272 272 271 271 271 271 270 270 270 271 270 270 270 270 270 270 270 270 270 270 270
Wind_Speed
4 3 5 8 10 13 16 19 20 20 21 22 22 22 23 24 25 25 26 28 28 29 30 30 30 25 23 24 21 24 20 21 13 22 25 26 36 39 31 27 25 19 19
4 2 4 7 10 13 16 17 18 19 19 20 21 22 23 23 23 24 26 26 28 29 30 29 29 27 26 26 24 23 22 26 25 12 18 25 27 30 26 20 19 24 25
4 3 3 6 9 13 15 17 16 18 19 20 21 22 23 24 25 26 26 28 29 30 30 28 26 25 28 22 21 19 20 24 27 24 22 22 26 26 17 10 11 11 12
5 4 2 4 7 11 13 13 15 16 19 21 21 21 20 22 22 24 27 28 31 29 27 26 25 23 20 21 19 21 22 25 24 22 19 19 17 20 16 10 4 4 4
8 6 3 2 6 8 11 13 14 15 16 18 19 20 19 21 22 24 24 23 18 16 16 17 21 23 24 26 23 20 21 20 17 15 13 6 7 6 7 8 5 7 5
11 9 5 1 4 6 10 12 12 13 16 16 18 20 22 20 24 21 20 19 16 15 16 16 19 20 22 23 25 25 27 22 14 11 9 6 11 8 12 13 13 7 3
13 11 7 3 3 3 7 9 11 12 16 15 19 21 22 24 27 23 19 18 17 16 15 16 19 22 24 24 22 23 24 27 27 23 18 17 17 19 17 19 13 4 6
14 13 9 6 4 2 4 6 9 11 13 13 15 20 21 22 26 23 18 18 19 18 16 18 15 14 14 21 19 20 22 23 26 26 28 29 26 22 20 18 18 19 23
17 16 11 8 5 3 3 6 7 9 11 12 12 16 18 20 22 23 18 18 20 22 22 22 19 15 13 8 17 15 9 3 7 13 19 22 20 17 18 19 20 20 4
20 19 13 10 8 7 2 1 3 6 7 8 11 15 17 18 18 20 20 20 19 17 20 24 23 18 13 7 8 8 10 11 10 12 18 19 16 14 11 13 25 15 13
19 18 17 13 12 9 6 2 0 2 2 5 8 12 15 16 18 17 17 20 18 19 20 22 23 19 19 18 10 8 8 7 12 14 18 19 18 15 14 14 14 17 14
20 21 20 16 15 12 9 6 4 2 2 3 5 8 13 15 16 16 15 15 14 17 17 17 15 16 19 18 16 13 10 12 16 19 20 20 22 21 19 17 15 14 11
22 24 23 20 17 15 14 11 8 5 2 2 5 8 11 13 15 16 16 16 15 14 11 11 12 14 14 16 15 12 12 15 18 19 17 18 18 17 19 21 21 20 22
26 26 24 23 21 19 16 13 10 8 6 3 1 4 6 10 13 14 14 13 12 13 13 14 14 16 17 17 17 16 15 15 17 19 18 16 15 15 17 18 20 21 24
28 28 28 27 25 22 20 17 14 10 9 6 4 3 3 6 7 8 10 11 9 8 9 11 15 17 18 18 18 17 16 16 19 18 19 18 18 18 17 18 13 12 15
28 28 29 30 29 26 23 19 15 13 12 9 7 6 5 4 3 4 6 8 7 4 5 11 14 13 14 13 14 15 14 14 14 14 15 17 20 17 12 9 13 22 24
29 25 28 30 29 29 27 24 20 16 13 13 12 10 8 6 5 4 4 4 5 2 6 7 8 8 9 7 6 10 11 10 10 9 9 10 11 11 12 15 19 21 19
31 26 27 28 28 27 28 27 27 23 20 21 17 13 11 8 6 5 4 3 2 2 4 4 5 4 4 5 5 6 7 7 6 6 7 7 7 8 11 12 11 15 15
27 25 27 26 29 30 29 27 27 26 25 20 13 13 14 11 9 6 5 4 3 1 0 1 0 0 1 2 3 3 2 3 3 3 4 5 5 5 7 9 9 11 11
25 27 24 24 24 26 25 24 24 24 24 23 21 19 13 13 13 12 9 7 6 5 3 2 2 2 2 2 2 2 3 2 2 3 4 4 5 5 6 7 9 10 8
22 22 25 22 24 26 25 25 26 26 26 27 27 21 16 16 14 11 8 7 5 5 4 4 4 4 4 4 4 4 4 4 4 4 5 6 7 8 8 8 8 8 7
18 19 20 22 21 22 24 25 27 27 27 26 25 20 16 17 16 14 11 10 9 8 8 6 6 5 6 6 5 6 7 6 5 6 5 7 8 9 9 10 10 10 10
11 15 16 18 18 20 19 22 23 24 24 23 21 18 17 20 19 17 14 11 11 12 11 9 8 8 7 7 8 8 8 8 7 7 7 8 8 9 9 10 9 9 9
4 7 9 11 13 15 16 19 20 20 18 17 15 15 15 16 17 16 13 11 11 13 12 9 8 8 8 8 8 8 9 9 9 10 9 8 8 8 8 8 9 9 9
9 5 1 3 6 8 9 11 11 12 10 9 8 8 8 7 8 7 8 9 10 10 8 6 6 6 6 6 6 6 6 7 7 7 8 8 8 8 7 8 8 8 8
21 19 18 15 14 10 8 8 9 9 9 9 9 8 8 8 7 6 5 5 5 4 3 2 1 2 3 4 4 4 4 4 4 5 6 7 7 6 7 7 8 9 9
Wind_Direction
244 299 323 338 340 342 346 345 343 329 328 323 321 317 311 305 302 293 286 281 276 273 269 266 267 254 258 256 255 243 252 267 266 273 271 278 288 293 289 277 270 256 238
227 283 319 336 350 356 357 350 349 344 342 335 331 320 311 307 303 297 290 283 276 271 269 265 260 259 264 251 253 253 254 262 277 275 267 255 277 285 278 277 273 261 261
221 257 315 350 1 8 0 351 358 352 347 343 338 327 323 323 313 307 298 290 281 274 269 264 260 261 260 245 250 249 250 261 266 269 263 278 279 266 268 284 290 281 284
218 237 283 5 8 11 1 356 8 3 351 345 341 340 337 333 328 320 311 298 284 273 273 268 258 261 248 246 245 256 263 264 254 259 259 258 268 254 245 250 243 357 2
209 218 225 359 15 15 4 8 8 14 3 354 349 357 349 350 337 335 332 328 322 283 276 269 267 266 264 261 257 250 265 263 249 247 250 204 220 224 213 208 173 161 51
207 217 220 294 1 13 13 18 8 7 14 358 355 7 5 353 350 347 348 358 340 317 301 292 286 280 270 258 260 266 261 258 274 255 263 237 244 214 217 195 158 141 178
210 221 213 246 320 3 11 12 12 23 23 8 360 11 11 13 2 359 358 12 18 8 347 322 303 284 275 269 265 264 264 261 254 252 249 246 253 250 228 187 189 152 115
214 224 213 235 268 325 15 9 360 12 16 5 1 10 18 16 7 5 9 23 27 26 26 12 352 337 294 268 263 263 265 272 271 263 248 250 253 256 244 215 185 130 124
218 228 215 228 243 271 37 17 358 358 9 15 17 16 18 21 15 13 17 30 32 30 31 25 14 7 355 314 245 250 247 260 294 269 251 249 250 237 239 206 145 132 95
219 225 217 222 236 244 195 68 14 356 8 20 32 27 23 22 21 19 23 34 33 24 24 29 26 25 23 41 114 122 82 47 83 104 106 111 115 119 152 194 170 151 124
221 220 219 220 230 232 238 206 311 19 25 48 42 38 33 26 24 21 27 33 30 31 29 27 29 31 44 58 79 96 93 105 79 83 86 88 94 102 108 132 143 131 113
219 216 215 215 224 228 229 222 214 240 325 32 42 43 39 34 35 29 29 35 37 47 31 26 27 37 46 50 61 76 101 108 103 96 90 84 89 90 93 102 114 118 99
215 215 215 212 217 225 228 219 215 222 205 44 23 27 30 31 36 34 36 36 36 41 40 38 43 44 55 63 60 82 97 102 108 96 84 84 89 97 104 102 102 106 116
220 219 216 217 212 216 228 237 230 222 223 220 321 27 31 31 30 26 25 32 39 46 52 60 61 66 72 75 74 77 89 103 104 102 99 101 103 103 104 110 107 108 107
228 228 221 218 217 215 218 223 232 236 235 232 242 276 347 20 20 14 19 16 23 35 61 72 69 66 65 69 74 80 91 102 105 112 114 112 111 113 111 119 108 95 106
227 226 224 219 217 216 215 214 222 228 226 229 231 244 250 271 303 1 14 19 18 32 45 70 69 66 73 78 83 84 87 98 110 118 118 119 121 115 113 115 128 127 121
224 222 221 218 215 210 211 210 208 217 222 227 230 233 236 248 262 296 331 337 356 23 89 89 80 72 69 80 99 109 110 112 120 127 123 125 126 112 109 117 131 134 127
232 226 219 217 214 211 210 212 215 213 217 231 232 235 233 238 252 276 317 291 296 38 88 107 108 99 85 72 87 102 110 117 130 125 131 134 141 139 130 127 133 135 135
231 223 221 220 218 216 214 214 220 222 226 232 228 222 227 236 243 255 263 285 268 265 265 324 348 41 80 96 107 124 126 131 134 147 157 163 166 168 153 153 153 156 153
241 233 221 216 213 210 212 211 214 220 226 229 230 231 224 216 225 232 242 255 256 256 251 244 252 239 246 284 279 240 198 221 216 215 204 195 198 199 210 194 190 183 185
241 234 220 213 212 210 208 208 212 216 220 227 234 235 233 230 234 235 234 251 263 249 250 242 247 261 264 265 249 261 265 265 262 242 239 233 227 233 231 227 221 215 197
249 239 226 217 216 211 211 213 214 216 221 226 235 233 226 231 233 230 228 236 245 251 238 233 234 242 258 275 264 263 266 268 264 260 252 250 247 240 234 226 222 216 206
257 241 231 229 227 224 221 226 224 224 227 230 235 234 222 225 231 231 230 247 251 248 250 252 239 248 262 272 278 275 278 283 282 270 265 259 254 248 244 242 236 230 224
271 244 232 237 234 227 229 227 230 233 235 233 231 232 233 234 236 237 239 241 241 224 224 234 235 242 260 272 275 276 278 277 274 272 271 270 267 261 258 253 251 249 245
53 61 111 231 239 235 229 231 230 225 220 217 218 224 228 227 223 208 213 211 201 201 208 220 233 247 258 266 275 280 279 284 290 286 280 272 261 255 259 260 253 244 238
67 70 69 70 65 66 75 93 93 100 101 106 110 119 129 135 138 139 143 154 166 167 171 182 219 263 284 293 289 290 295 306 312 293 279 271 263 253 248 249 244 235 232